THOR ABLESTAR DEB, 48828

Orbit data source: Space-Track

THOR ABLESTAR DEB, 48828 is space debris in LEO originally from a launch on Thu, 29 Jun 1961 UTC launched from the Air Force Eastern Test Range (AFETR). Debris objects in space refer to the collection of defunct objects orbiting the Earth. Examples of debris include non-operational satellites, rocket bodies, and fragments generated from explosions, collisions, or faulty payload assembly.

Loading next visibility...
Identifier
48828, 1961-015NG
Orbit
LEO
Country
Flag of USUS
Related business
Manufacturer
Unknown
Mission
Spacecraft
Bus & Motor
Unknown
Mass
Unknown
Launch date (UTC)
1961-06-29 (65 years ago)
Launch vehicle
Unknown
Launch site
Air Force Eastern Test Range (AFETR)
Object type
Payload
Rocket body
Debris
Shape & HBR
Unknown shape, 0.1 m
Radar Cross Section
Small (<0.1 m²)

Expand to show TLE details & history
Last TLE update: 23 hours ago

TLE from 23 hours ago
0 THOR ABLESTAR DEB
1 48828U 61015NG  26219.47138733  .00000005  00000-0  61347-4 0  9999
2 48828  66.7631 352.5865 0052244  93.9895 330.9775 13.94067170646586
Epoch: 2026-08-07T11:18Z
TLE epoch observation values (Epoch: 2026-08-07T11:18:47.865Z)
Latitude
56.27544°
Longitude
-93.33094°
Altitude
889.687 km
Speed
7.43 km/s
True Right ascension
02h 09m 27s
True Declination
56° 07' 10"
Sunlit
Object was in daylight at epoch
Visualization orbit readout
Latitude
Unknown
Longitude
Unknown
Altitude
Unknown
Speed
Unknown
Apparent Right ascension
Unknown
Apparent Declination
Unknown
Sunlit
N/A
Visualization observer readout
Local Sidereal Time
00:29:42
Azimuth
Unknown
Elevation
Unknown
Doppler factor
Unknown
Orbital elements
Apogee altitude
950.898 km
Perigee altitude
874.717 km
Semi-major axis
7,290.944 km
Eccentricity
0.00522
Inclination
66.7631°
RAAN
352.5865°
Arg. of periapsis
93.9895°
True anomaly
330.68539°
Mean anomaly
330.9775°
Eccentric anomaly
330.83161°
Mean motion
3.48632 °/min
Orbital period
103.26 mins
BSTAR
0.000061347
Loading maneuver chart data...
Computing Atmospheric mass density...
Loading historical data...
Loading historical data...
Loading historical data...
Loading historical data...
Loading historical data...
Loading historical data...
Loading historical data...

Documentation

Showing up to 5 results
|